Weather History for Albuquerque, NM

Change the Weather History Date:

Saturday, June 8, 2013

  Actual Average Record
Temperature  
Mean Temperature 80 °F 73 °F  
Max Temperature 97 °F 87 °F 100 °F (1981)
Min Temperature 62 °F 60 °F 41 °F (1917)
Degree Days  
Heating Degree Days 0 0  
Month to date heating degree days 0 0  
Since 1 June heating degree days 0 0  
Since 1 July heating degree days 3894 4175  
Cooling Degree Days 15 8  
Month to date cooling degree days 88 57  
Year to date cooling degree days 205 155  
Since 1 June cooling degree days 88 57  
Growing Degree Days 30 (Base 50)    
Moisture  
Dew Point 34 °F    
Average Humidity 28    
Maximum Humidity 48    
Minimum Humidity 8    
Precipitation  
Precipitation 0.00 in 0.02 in 1.31 in (1905)
Month to date precipitation T 0.12  
Year to date precipitation 0.68 2.66  
Snow  
Snow 0.00 in - - ()
Month to date snowfall 0.0  
Since 1 June snowfall 0.0  
Since 1 July snowfall 3.5  
Snow Depth 0.00 in    
Sea Level Pressure  
Sea Level Pressure 29.67 in    
Wind  
Wind Speed 11 mph (NW)    
Max Wind Speed 30 mph    
Max Gust Speed 37 mph    
Visibility 10 miles    
Events      
T = Trace of Precipitation, MM = Missing Value Source: NWS Daily Summary

Daily Weather History Graph

Daily Weather History Graph

Search for Another Location

Airport:

Trip Planner

Search our weather history database for the weather conditions in past years. The results will help you decide how hot, cold, wet, or windy it might be!

Date:

Astronomy

Jun. 08, 2013 Rise Set
Actual Time 5:52 AM MDT 8:19 PM MDT
Civil Twilight 5:22 AM MDT 8:48 PM MDT
Nautical Twilight 4:46 AM MDT 9:25 PM MDT
Astronomical Twilight 4:06 AM MDT 10:05 PM MDT
Moon 5:59 AM MDT (6/8) 8:26 PM MDT (6/8)
Length of Visible Light 15h 26m
Length of Day
14h 27m
New Moon, 0% of the Moon is Illuminated
Jun 8
New Moon
Jun 16
First Quarter
Jun 23
Full
Jun 29
Last Quarter
Jul 8
New

Hourly Weather History & Observations

Time (MDT) Temp. Dew Point Humidity Pressure Visibility Wind Dir Wind Speed Gust Speed Precip Events Conditions
12:52 AM 72.0 °F 42.1 °F 34% 29.73 in 10.0 mi North 8.1 mph - N/A   Partly Cloudy
1:52 AM 69.1 °F 45.0 °F 42% 29.73 in 10.0 mi North 10.4 mph - N/A   Partly Cloudy
2:52 AM 66.0 °F 45.0 °F 47% 29.73 in 10.0 mi North 8.1 mph - N/A   Scattered Clouds
3:52 AM 64.9 °F 44.1 °F 47% 29.72 in 10.0 mi North 8.1 mph - N/A   Scattered Clouds
4:52 AM 64.9 °F 43.0 °F 45% 29.71 in 10.0 mi East 3.5 mph - N/A   Partly Cloudy
5:52 AM 64.0 °F 39.9 °F 41% 29.73 in 10.0 mi ESE 4.6 mph - N/A   Partly Cloudy
6:52 AM 66.0 °F 39.0 °F 37% 29.75 in 10.0 mi ESE 4.6 mph - N/A   Partly Cloudy
7:52 AM 69.1 °F 39.9 °F 35% 29.75 in 10.0 mi SSE 8.1 mph - N/A   Partly Cloudy
8:52 AM 71.1 °F 41.0 °F 34% 29.75 in 10.0 mi SSW 10.4 mph - N/A   Partly Cloudy
9:52 AM 73.0 °F 42.1 °F 33% 29.75 in 10.0 mi SW 6.9 mph - N/A   Mostly Cloudy
10:52 AM 78.1 °F 39.9 °F 25% 29.73 in 10.0 mi WSW 5.8 mph - N/A   Scattered Clouds
11:52 AM 82.0 °F 36.0 °F 19% 29.71 in 10.0 mi Calm Calm - N/A   Scattered Clouds
12:52 PM 86.0 °F 35.1 °F 16% 29.67 in 10.0 mi Variable 3.5 mph - N/A   Scattered Clouds
1:52 PM 91.9 °F 32.0 °F 12% 29.62 in 10.0 mi West 11.5 mph 21.9 mph N/A   Scattered Clouds
2:52 PM 95.0 °F 27.0 °F 9% 29.60 in 10.0 mi WNW 23.0 mph 34.5 mph N/A   Scattered Clouds
3:52 PM 96.1 °F 25.0 °F 8% 29.58 in 10.0 mi West 11.5 mph 32.2 mph N/A   Scattered Clouds
4:52 PM 96.1 °F 25.0 °F 8% 29.56 in 10.0 mi NW 17.3 mph 27.6 mph N/A   Scattered Clouds
5:52 PM 96.1 °F 24.1 °F 8% 29.56 in 10.0 mi NW 20.7 mph 27.6 mph N/A   Scattered Clouds
6:52 PM 95.0 °F 24.1 °F 8% 29.57 in 10.0 mi NW 19.6 mph 26.5 mph N/A   Scattered Clouds
7:52 PM 93.2 °F 23.0 °F 8% 29.58 in 10.0 mi NW 16.1 mph 25.3 mph N/A   Scattered Clouds
8:52 PM 89.6 °F 24.8 °F 10% 29.61 in 10.0 mi NNW 11.5 mph - N/A   Scattered Clouds
9:52 PM 87.8 °F 24.8 °F 10% 29.65 in 10.0 mi NNW 5.8 mph - N/A   Scattered Clouds
10:52 PM 84.9 °F 25.0 °F 11% 29.66 in 10.0 mi NNE 6.9 mph - N/A   Scattered Clouds
11:52 PM 80.1 °F 39.0 °F 23% 29.69 in 10.0 mi East 21.9 mph 31.1 mph N/A   Scattered Clouds